Regional Weather Roundup
Issued by NWS

Home | Current Version | Previous Version | Graphics & Text | Print | Product List | Glossary On
Versions: 1 2 3 4 5 6 7 8 9 10 11 12 13 14 15 16 17 18 19 20 21 22 23 24 25 26 27 28 29 30 31 32 33 34 35 36 37 38 39 40 41 42 43 44 45 46 47 48 49 50
000
ASUS45 KBOI 262110
RWRID

IDAHO REGIONAL WEATHER ROUNDUP
NATIONAL WEATHER SERVICE BOISE ID
300 PM MDT TUE MAY 26 2015

NOTE: "FAIR" INDICATES FEW OR NO CLOUDS BELOW 12000 FEET
WITH NO SIGNIFICANT WEATHER AND/OR OBSTRUCTIONS TO VISIBILITY

IDZ012-014-262200-
SOUTHWEST IDAHO


CITY           SKY/WX    TMP DP  RH WIND       PRES   REMARKS
BOISE          MOSUNNY   75  43  31 VRB7      29.90F
CALDWELL       MOSUNNY   75  45  33 CALM      29.91F
MOUNTAIN HOME  PTSUNNY   76  39  26 W10       29.89F
$$

IDZ016-017-262200-
SOUTHCENTRAL IDAHO


CITY           SKY/WX    TMP DP  RH WIND       PRES   REMARKS
BURLEY         PTSUNNY   68  45  43 S8        29.95F
JEROME         MOSUNNY   71  39  31 SW3       29.94F
TWIN FALLS     SUNNY     72  38  29 N9        29.92F
$$

IDZ019>023-262200-
SOUTHEAST IDAHO


CITY           SKY/WX    TMP DP  RH WIND       PRES   REMARKS
IDAHO FALLS    PTSUNNY   65  48  54 S14G24    30.00S
POCATELLO      PTSUNNY   61  51  70 S24G30    29.99F
REXBURG        CLOUDY    61  47  59 S13       30.00S
$$

IDZ006-010-011-018-031-032-262200-
CENTRAL IDAHO MOUNTAINS


CITY           SKY/WX    TMP DP  RH WIND       PRES   REMARKS
MCCALL         MOSUNNY   64  26  23 MISG      29.95F
HAILEY         MOSUNNY   64  45  48 SE12      29.99F
STANLEY          N/A     59  30  33 W10       30.03S
SALMON         MOSUNNY   66  37  34 W8        29.91F
CHALLIS        MOSUNNY   70  30  22 VRB5      29.92F
$$

IDZ002-004-006-007-026-262200-
NORTHERN IDAHO


CITY           SKY/WX    TMP DP  RH WIND       PRES   REMARKS
LEWISTON       LGT RAIN  65  51  60 SW3       29.95F
LOWELL           N/A     74  51  44 CALM      29.89F
COEUR D`ALENE  CLOUDY    61  50  67 SW7       29.97S
MULLAN PASS    PTSUNNY   45  42  89 NW6       30.04S
$$



USA.gov is the U.S. government's official web portal to all federal, state and local government web resources and services.